"Pseudo-MPEC" for A107xSo

Created 2018 Jul 12 16:18:07 UT using Find_Orb

Click here for an explanation of pseudo-MPECs

 
 Astrometry: 
     A107xSo  C2018 07 1077AstrometryFe%%-Z:*#il5Z1HkSg4i*4L/`Tj3e[$eF]D-=_7tT05
     A107xSo  C2018 07 10N]/bI1TyhF]Lm7OEr-1rkUYbnq7v._W294e[ZH^`og,*fX7Q*(-dT05
     A107xSo  C2018 07 10EU5\RC\7!n*5YeI\#/Q$P8b=JyHU\Us'e.==+y.,Hlu[WDq5.#m^T05
     A107xSo  C2018 07 10;UUeT$tj3GKxUhoaB#GjoC%'AQpOTchoC4L!c=i0hg@W7[Sn(w%ET05
     A107xSo KC2018 07 10.97076 16 31 47.83 -16 29 28.5                VNEOCPJ95
     A107xSo KC2018 07 10.97607 16 31 51.60 -16 28 48.1                VNEOCPJ95
     A107xSo KC2018 07 10.98144 16 31 55.42 -16 28 06.0          18.9 GVNEOCPJ95
     A107xSo  C2018 07 11GSov-XdVvbEc.?Rbt8s1sLYIw[%v(3k%@ICQy+vI*uU]);0nh\NjF51
     A107xSo  C2018 07 11_KeH.x9gr=1#pyrs]nO`+XUMCR!hlLnWN/hD[+U_!%^NyBBN\'`7F51
     A107xSo KC2018 07 11w34*hvop-CM1qwp\L+A^=vfy#MjU:$_][5RQBuX^a)51cL]IG]-dE08
     A107xSo KC2018 07 11Yt=7!-F;e_xFt*RdTredacted;AnCRWo6MhZ-bwxc^DXJ)1p#;suE08
     A107xSo KC2018 07 11g'[$Ilt_Mj2;KsWHqta;R1x=[U38N.%/%:4N,b33,yNWM_ZDYA:fE08
     A107xSo KC2018 07 11,l)AHYv%^`*RN29jyLvxUTK:hJtc`o0CjX`J/?bI#;w5Tg4Z=f5KE08
     A107xSo KC2018 07 128P9J40KDSpWmt@f\iiQf$_-8@$%UPq+ig/F!sKy'uVtov;,?*]_cH21
     A107xSo KC2018 07 12wlU=q4L!+2DLAj';p'Bk7p;heG-p^m3[9hRd#%ebk0ifTp'$w#p5H21
     A107xSo KC2018 07 12N1Wm2d=p1PRK?*ivcU^T?MAsxxuZHdb3AUE`s;q#GvB,frou1$:8H21
     A107xSo KC2018 07 12yg6U?25APQTLaSf4I77p44T,LO=PCVOdl**XtKc%Z5f3U6l8-Zc4H21
     A107xSo  C2018 07 1225=P?:`n%RS/e'4N,n=M\r'rd?YEyw32see2QRkJ.-Ys4H!uHRjO474
     A107xSo  C2018 07 12%UI8TH5A4HLPTrRTBaV4P$6%tT'MEW,TZDb\4)q60Gj(TxJ;nOE*474
     A107xSo  C2018 07 12e$%t,,s=lMwji3$L*:\,^d`75!+o**J/YDo?=21D/!gBZ9'Nv3g`474
     A107xSo  C2018 07 12sXON=EXHy\1XZwwlbuUcbQwXLRE98qhF4g%6f;!DB[usM]I\14xg474
     A107xSo  C2018 07 12l$?8=20hTWA6m-QH+M*G1=Jn=[(o#Nsvfj.QXb.5)x\j)*uW4!Xr474
     A107xSo KC2018 07 12(nj=P_t$3qEWYv6B^%%\aJeEEvZ!T4s6(c.X#(\jy'GYW]U;4QW^E23
     A107xSo KC2018 07 12q#^m7_K2lSveS)!C\)jo:(JVD9-Vw$Y5Lpt(A-tN]u9jX:3:wW08E23
     A107xSo KC2018 07 12_4H^MUn%4M::wiBPpFgk_WISj+!(C;kSDGIht=\q`$i6u5#NEOCPE23

Station data:
(474) Mount John Observatory, Lake Tekapo  (S43.987388 E170.464960)  New
   Zealand.  Observers A. C. Gilmore, P. M. Kilmartin. Measurer P. M.
   Kilmartin. 1.0-m f/7.7 reflector + CCD.
(E08) Wobblesock Observatory, Coonabarabran  (S31.226991 E149.334310)
   Australia/NSW.
(E23) Arcadia  (S33.621199 E151.071190)  Australia/NSW.
(F51) Pan-STARRS 1, Haleakala  (N20.707235 W156.255910)  US/Hawaii.
   Observers N. Primak, A. Schultz, S. Watters, J. Thiel, T. Goggia. Measurer
   PS1 Science Consortium. 1.8-m Ritchey-Chrétien + CCD.
(H21) Astronomical Research Observatory, Westfield  (N39.483057 W87.968270)
   US/Illinois. 0.76-m f/3.0 astrograph + CCD.
(J95) Great Shefford  (N51.474969 W1.447003)  UK.  Observer P. Birtwhistle.
   0.40-m f/6.0 Schmidt-Cassegrain + CCD.
(T05) ATLAS-HKO, Haleakala  (N20.707573 W156.257010)  US/Hawaii.  Observers
   L. Denneau, A. Heinze, H. Weiland, B. Stalder, J. Tonry, A. Sherstyuk.
   Measurers L. Denneau, A. Heinze, J. Tonry. 0.5-m f/2.0 Schmidt + CCD.

Orbital elements:  A107xSo
   Perihelion 2018 Jun 13.422164 +/- 0.0224 TT = 10:07:55 (JD 2458282.922164)
Epoch 2018 Jul 12.0 TT = JDT 2458311.5   Earth MOID: 0.0509   AutoNEOCP
M  12.20993 +/- 0.041               (J2000 ecliptic)
n   0.42725182 +/- 0.0012           Peri.  332.57104 +/- 0.020
a   1.74587615 +/- 0.00328          Node   283.56663 +/- 0.0054
e   0.4034393 +/- 0.00108           Incl.   11.56529 +/- 0.020
P   2.31/842.58d           H 22.9   G  0.15   U  8.2  
q 1.04152101 +/- 8.74e-5    Q 2.45023130 +/- 0.00649
From 25 observations 2018 July 10-12; mean residual 0".34
Residuals in arcseconds: 
180710 T05  .92-  .77-    180711 E08  .02-  .10+    180712 474  .22-  .09+    
180710 T05  .73+  .18-    180711 E08  .07-  .00     180712 474  .17-  .21-    
180710 T05  .11-  .11+    180711 E08  .74-  .40+    180712 474  .03-  .06+    
180710 T05  .44-  .67+    180711 E08  .10-  .13-    180712 474  .18-  .07-    
180710 J95  .21-  .23+    180712 H21  .12-  .01-    180712 E23  .09+  .50+    
180710 J95  .10+  .35-    180712 H21  .11-  .02-    180712 E23  .41+  .43+    
180710 J95  .51+  .29+    180712 H21  .08+  .37-    180712 E23  .19+  .18+    
180711 F51  .21-  .23-    180712 H21  .06+  .36-    
180711 F51  .35-  .45-    180712 474  .07-  .59-    

Ephemerides (geocentric):
Date (UTC) HH   RA              Dec         delta   r     elong  mag " sig PA
---- -- -- --  -------------   -----------  ------ ------ -----  --- ---- ---
2018 07 12 16  16 51 21.303   -12 58 31.12  .08731 1.0868 142.0 19.2  .06 178
2018 07 12 17  16 51 48.400   -12 53 34.49  .08743 1.0869 142.1 19.2  .06 179
2018 07 12 18  16 52 15.418   -12 48 38.48  .08754 1.0870 142.1 19.2  .07   0
2018 07 12 19  16 52 42.358   -12 43 43.11  .08765 1.0871 142.1 19.2  .08   0
2018 07 12 20  16 53 09.219   -12 38 48.38  .08776 1.0872 142.2 19.2  .08   1
2018 07 12 21  16 53 36.002   -12 33 54.29  .08788 1.0874 142.2 19.2  .09   1
2018 07 12 22  16 54 02.708   -12 29 00.85  .08799 1.0875 142.2 19.2  .09   2
2018 07 12 23  16 54 29.335   -12 24 08.05  .08811 1.0876 142.3 19.2  .10   2
2018 07 13 00  16 54 55.885   -12 19 15.91  .08822 1.0877 142.3 19.2  .11   3
2018 07 13 01  16 55 22.357   -12 14 24.42  .08834 1.0879 142.4 19.2  .11   3
2018 07 13 02  16 55 48.752   -12 09 33.58  .08846 1.0880 142.4 19.2  .12   3
2018 07 13 03  16 56 15.070   -12 04 43.41  .08858 1.0881 142.4 19.2  .12   4
2018 07 13 04  16 56 41.310   -11 59 53.90  .08869 1.0882 142.5 19.2  .13   4
2018 07 13 05  16 57 07.474   -11 55 05.06  .08881 1.0884 142.5 19.2  .13   4
2018 07 13 06  16 57 33.561   -11 50 16.88  .08893 1.0885 142.5 19.2  .14   4
2018 07 13 07  16 57 59.572   -11 45 29.37  .08905 1.0886 142.6 19.2  .15   4
2018 07 13 08  16 58 25.507   -11 40 42.54  .08917 1.0888 142.6 19.2  .15   5
2018 07 13 09  16 58 51.365   -11 35 56.38  .08929 1.0889 142.6 19.2  .16   5
2018 07 13 10  16 59 17.147   -11 31 10.90  .08941 1.0890 142.7 19.2  .17   5
2018 07 13 11  16 59 42.854   -11 26 26.10  .08953 1.0891 142.7 19.2  .17   5
2018 07 13 12  17 00 08.485   -11 21 41.98  .08966 1.0893 142.7 19.2  .18   5
2018 07 13 13  17 00 34.040   -11 16 58.55  .08978 1.0894 142.8 19.2  .18   5
2018 07 13 14  17 00 59.520   -11 12 15.81  .08990 1.0895 142.8 19.2  .19   5
2018 07 13 15  17 01 24.926   -11 07 33.75  .09002 1.0896 142.8 19.3  .20   5
2018 07 13 16  17 01 50.256   -11 02 52.38  .09015 1.0898 142.8 19.3  .20   5
2018 07 13 17  17 02 15.511   -10 58 11.71  .09027 1.0899 142.9 19.3  .21   5
2018 07 13 18  17 02 40.692   -10 53 31.74  .09040 1.0900 142.9 19.3  .21   5
2018 07 13 19  17 03 05.799   -10 48 52.46  .09052 1.0902 142.9 19.3  .22   5
2018 07 13 20  17 03 30.831   -10 44 13.88  .09065 1.0903 143.0 19.3  .23   5
2018 07 13 21  17 03 55.790   -10 39 36.00  .09078 1.0904 143.0 19.3  .23   5
2018 07 13 22  17 04 20.674   -10 34 58.82  .09090 1.0905 143.0 19.3  .24   5
2018 07 13 23  17 04 45.485   -10 30 22.35  .09103 1.0907 143.0 19.3  .25   5
2018 07 14 00  17 05 10.223   -10 25 46.58  .09116 1.0908 143.1 19.3  .25   5
2018 07 14 01  17 05 34.887   -10 21 11.52  .09129 1.0909 143.1 19.3  .26   5
2018 07 14 02  17 05 59.479   -10 16 37.17  .09142 1.0911 143.1 19.3  .27   5
2018 07 14 03  17 06 23.997   -10 12 03.53  .09155 1.0912 143.2 19.3  .27   5
2018 07 14 04  17 06 48.443   -10 07 30.61  .09168 1.0913 143.2 19.3  .28   5
2018 07 14 05  17 07 12.816   -10 02 58.39  .09181 1.0914 143.2 19.3  .28   5
2018 07 14 06  17 07 37.117   -09 58 26.90  .09194 1.0916 143.2 19.3  .29   5
2018 07 14 07  17 08 01.346   -09 53 56.11  .09207 1.0917 143.3 19.3  .30   5
2018 07 14 08  17 08 25.503   -09 49 26.05  .09220 1.0918 143.3 19.3  .30   5
2018 07 14 09  17 08 49.588   -09 44 56.70  .09233 1.0920 143.3 19.3  .31   5
2018 07 14 10  17 09 13.602   -09 40 28.08  .09247 1.0921 143.3 19.3  .32   5
2018 07 14 11  17 09 37.544   -09 36 00.18  .09260 1.0922 143.3 19.3  .32   5
2018 07 14 12  17 10 01.416   -09 31 32.99  .09273 1.0923 143.4 19.3  .33   5
2018 07 14 13  17 10 25.216   -09 27 06.54  .09287 1.0925 143.4 19.3  .34   5
2018 07 14 14  17 10 48.946   -09 22 40.80  .09300 1.0926 143.4 19.3  .34   5
2018 07 14 15  17 11 12.605   -09 18 15.79  .09314 1.0927 143.4 19.3  .35   5